Location: Newark
(48.1500°N, 13.1167°E)
Time: 23:37:11
(UTC+00:00)

XW-2D - Pass Details

Date: 13 December 2021
Orbit: 502 x 522 km, 97.5° (Epoch: 19 January)

Event Time Altitude Azimuth Distance (km) Brightness Sun altitude
Rises 17:17:15 0° 207° (SSW) 2,627 ? -19.5°
Reaches altitude 10° 17:19:58 10° 229° (SW) 1,751 ? -20.0°
Maximum altitude 17:22:24 16° 269° (W) 1,404 ? -20.4°
Drops below altitude 10° 17:24:51 10° 309° (NW) 1,767 ? -20.8°
Sets 17:27:38 0° 331° (NNW) 2,665 ? -21.2°
